Simultaneous Nadir Overpasses (SNOs) Predictions

Prediction of SNOs between GOES-16 and AQUA Satellite Orbit:

Table of predicted SNOs for the next 14.0 days since TLE Epoch: 3/20/2021
Index Date Time (GOES-16) GOES-16 Lat,Lon AQUA Lat,Lon Distance(km) Time Diff (sec)
1 03/20/2021 06:38:18 -0.05, -75.21 0.00, -75.35 16.14 80
2 03/22/2021 06:23:27 -0.04, -75.21 -0.63, -72.39 319.75 80
3 03/22/2021 18:44:51 0.04, -75.20 -0.48, -77.58 271.44 80
4 03/24/2021 18:35:20 0.03, -75.20 0.16, -74.63 64.98 80
5 03/26/2021 18:23:09 0.02, -75.21 0.79, -71.68 401.96 80
6 03/27/2021 06:44:24 -0.02, -75.22 0.34, -76.83 182.96 80
7 03/29/2021 06:29:33 -0.02, -75.24 -0.30, -73.88 154.53 80
8 03/29/2021 18:50:56 0.02, -75.23 -0.81, -79.07 436.73 80
9 03/31/2021 06:17:22 -0.02, -75.26 -0.95, -70.93 492.31 80
10 03/31/2021 18:38:45 0.02, -75.25 -0.16, -76.12 98.81 80
11 04/02/2021 18:29:15 0.02, -75.27 0.49, -73.17 239.39 80
